Regional Weather Roundup
Issued by NWS State College, PA

Home | Current Version | Previous Version | Graphics & Text | Print | Product List | Glossary Off
Versions: 1 2 3 4 5 6 7 8 9 10 11 12 13 14 15 16 17 18 19 20 21 22 23 24 25 26 27 28 29 30 31 32 33 34 35 36 37 38 39 40 41 42 43 44 45 46 47 48 49 50

000
ASUS41 KCTP 142203
RWRCTP

REGIONAL WEATHER ROUNDUP
NATIONAL WEATHER SERVICE STATE COLLEGE PA
500 PM EST THU DEC 14 2017

Note: "fair" indicates few or no clouds below 12,000 feet with no
significant weather and/or obstructions to visibility.

* = STATION THAT DOES NOT REPORT PRECIPITATION /E.G. RAIN...SNOW...ETC/
    THUNDER OR FOG.

PAZ002>004-007>009-013>016-020>023-029>032-142300-
WESTERN PENNSYLVANIA

CITY           SKY/WX    TMP DP  RH WIND       PRES   REMARKS
ERIE           CLOUDY    24  13  62 SW7       29.99R
MEADVILLE      CLOUDY    19  12  74 W5        29.96R WCI  12
FRANKLIN*      FLURRIES  19  12  74 CALM      29.96R
NEW CASTLE     CLOUDY    23  13  65 NW3       30.00R
BEAVER COUNTY  FLURRIES  23  16  74 NW3       29.98R
BUTLER*        CLOUDY    22  12  65 W3        29.98R
PITTSBURGH INT MOCLDY    25  11  55 NW7       29.98R
PITTSBURGH     PTCLDY    23   7  50 CALM      29.98R
INDIANA*       MOCLDY    21  10  63 NW6       30.00R WCI  14
LATROBE        PTCLDY    23   9  54 N6        29.99R
WASHINGTON CO* MOCLDY    24  13  62 W5        30.02R
$$

PAZ004>006-010>012-017>019-024>028-033>037-041-042-045-046-049>053-142300-
CENTRAL PENNSYLVANIA

CITY           SKY/WX    TMP DP  RH WIND       PRES   REMARKS
BRADFORD         N/A     15   8  73 W7        29.88R WCI   5
DUBOIS         CLEAR     17   5  59 W5        29.92R WCI  10
CLEARFIELD     CLEAR     18   6  59 NW6       29.95R WCI  10
JOHNSTOWN      PTCLDY    17   7  64 NW9       29.89R WCI   6
ALTOONA        CLEAR     22   7  52 NW7       29.95R WCI  13
STATE COLLEGE  CLEAR     21   3  45 NW8       29.96R WCI  12
WILLIAMSPORT   CLEAR     26   5  40 NW12      29.97R
SELINSGROVE    CLEAR     26   8  46 W7        29.98R
FT INDIANTOWN  PTCLDY    28   6  38 NW8       29.96R
CAPITAL CITY   CLEAR     30   6  36 W9G21     29.98R
HARRISBURG     CLEAR     29  12  49 NW10      29.98R
YORK           CLEAR     28  12  51 NW8       29.97R
$$

PAZ038>040-043-044-047-048-054-055-060>062-067>071-142300-
EASTERN PENNSYLVANIA

CITY           SKY/WX    TMP DP  RH WIND       PRES   REMARKS
SCRANTON       CLEAR     21   6  52 NW6       29.92R WCI  13
MOUNT POCONO   CLEAR     15   4  61 W10       29.82R WCI   2
ALLENTOWN      CLEAR     27   7  42 NW12      29.94R
QUAKERTOWN*    CLEAR     27   9  46 W5        29.95R
READING        CLEAR     26  13  57 NW10      29.95R
LANCASTER      CLEAR     28  11  48 NW10      29.96R
COATESVILLE    CLEAR     27  12  54 NW7       29.96R
POTTSTOWN      CLEAR     26  10  50 NW3       29.97R
BLUE BELL      CLEAR     28  12  50 CALM      29.97R
DOYLESTOWN     CLEAR     26   9  48 NW8       29.94R
WILLOW GROVE   NOT AVBL
NORTH PHILA    CLEAR     31  11  43 NW9       29.98R
PHILADELPHIA   PTCLDY    32  11  41 NW12      29.97R
$$




USA.gov is the U.S. government's official web portal to all federal, state and local government web resources and services.